SAS505 EKCH-EGLL

Flight info

Callsign SAS505
Flight time 1h 41m
Altitude 38000
Route LANGO DCT ABNED L980 LOGAN
Aircraft A20N/M-SDE2E3FGHIRWXY/LB1

Departure

Time 2026-04-24 11:47
Airport Copenhagen Kastrup Airport (EKCH)

Arrival

Time 2026-04-24 13:29
Airport London Heathrow Airport (EGLL)
Time Latitude Longitude Altitude Speed Heading
2026-04-24 11:18 55.62644 12.64566 20 ft 0 kts 281°
2026-04-24 11:34 55.62641 12.64588 47 ft 2 kts 281°
2026-04-24 11:34 55.62638 12.64616 13 ft 2 kts 278°
2026-04-24 11:35 55.62640 12.64645 22 ft 2 kts 244°
2026-04-24 11:35 55.62651 12.64664 24 ft 2 kts 212°
2026-04-24 11:35 55.62638 12.64662 23 ft 3 kts 179°
2026-04-24 11:35 55.62618 12.64658 21 ft 3 kts 187°
2026-04-24 11:36 55.62599 12.64653 20 ft 3 kts 185°
2026-04-24 11:36 55.62579 12.64653 20 ft 3 kts 180°
2026-04-24 11:36 55.62559 12.64653 20 ft 3 kts 180°
2026-04-24 11:36 55.62533 12.64653 20 ft 2 kts 180°
2026-04-24 11:39 55.62508 12.64655 20 ft 6 kts 174°
2026-04-24 11:40 55.62449 12.64669 21 ft 11 kts 172°
2026-04-24 11:40 55.62363 12.64678 20 ft 14 kts 175°
2026-04-24 11:40 55.62293 12.64785 20 ft 14 kts 124°
2026-04-24 11:40 55.62237 12.64935 22 ft 17 kts 123°
2026-04-24 11:41 55.62163 12.65097 20 ft 14 kts 160°
2026-04-24 11:41 55.62108 12.65065 21 ft 0 kts 213°
2026-04-24 11:41 55.62107 12.65065 21 ft 0 kts 213°
2026-04-24 11:41 55.62103 12.65061 21 ft 1 kts 213°
2026-04-24 11:42 55.62086 12.65040 21 ft 8 kts 213°
2026-04-24 11:42 55.62009 12.64951 21 ft 18 kts 213°
2026-04-24 11:42 55.61903 12.64828 20 ft 18 kts 213°
2026-04-24 11:42 55.61799 12.64710 20 ft 18 kts 213°
2026-04-24 11:43 55.61697 12.64592 20 ft 18 kts 213°
2026-04-24 11:43 55.61594 12.64474 20 ft 18 kts 213°
2026-04-24 11:43 55.61491 12.64356 20 ft 18 kts 213°
2026-04-24 11:43 55.61388 12.64238 22 ft 18 kts 213°
2026-04-24 11:44 55.61285 12.64118 21 ft 18 kts 213°
2026-04-24 11:44 55.61181 12.63998 20 ft 18 kts 213°
2026-04-24 11:44 55.61077 12.63877 22 ft 18 kts 213°
2026-04-24 11:44 55.60972 12.63758 20 ft 18 kts 213°
2026-04-24 11:45 55.60867 12.63638 22 ft 18 kts 212°
2026-04-24 11:45 55.60785 12.63595 22 ft 10 kts 148°
2026-04-24 11:45 55.60738 12.63683 20 ft 10 kts 131°
2026-04-24 11:45 55.60694 12.63775 21 ft 9 kts 124°
2026-04-24 11:46 55.60684 12.63865 22 ft 7 kts 79°
2026-04-24 11:46 55.60714 12.63932 22 ft 7 kts 40°
2026-04-24 11:46 55.60758 12.63998 22 ft 12 kts 41°
2026-04-24 11:46 55.60991 12.64358 22 ft 86 kts 40°
2026-04-24 11:47 55.61659 12.65403 120 ft 159 kts 40°
2026-04-24 11:47 55.62534 12.66767 836 ft 178 kts 36°
2026-04-24 11:47 55.63528 12.68297 1631 ft 201 kts 38°
2026-04-24 11:47 55.64646 12.70030 2287 ft 226 kts 38°
2026-04-24 11:48 55.65901 12.71929 2917 ft 246 kts 36°
2026-04-24 11:48 55.67232 12.73908 3550 ft 251 kts 36°
2026-04-24 11:48 55.68568 12.75908 4235 ft 253 kts 38°
2026-04-24 11:48 55.69728 12.78289 4934 ft 260 kts 56°
2026-04-24 11:49 55.70286 12.81363 5608 ft 269 kts 82°
2026-04-24 11:49 55.69971 12.84676 6308 ft 280 kts 111°
2026-04-24 11:49 55.68764 12.87420 6964 ft 290 kts 141°
2026-04-24 11:49 55.66958 12.89082 7630 ft 296 kts 158°
2026-04-24 11:50 55.65010 12.90329 8310 ft 300 kts 161°
2026-04-24 11:50 55.62976 12.91189 9001 ft 302 kts 174°
2026-04-24 11:50 55.60878 12.91200 9708 ft 302 kts 192°
2026-04-24 11:50 55.58944 12.89879 10371 ft 301 kts 219°
2026-04-24 11:51 55.57533 12.87172 11026 ft 305 kts 241°
2026-04-24 11:51 55.56448 12.83869 11634 ft 317 kts 246°
2026-04-24 11:51 55.55401 12.80343 12244 ft 331 kts 246°
2026-04-24 11:51 55.54321 12.76675 12862 ft 342 kts 246°
2026-04-24 11:52 55.53586 12.74198 13280 ft 345 kts 246°
2026-04-24 11:52 55.52463 12.70442 13904 ft 347 kts 246°
2026-04-24 11:52 55.51327 12.66662 14471 ft 350 kts 246°
2026-04-24 11:52 55.49806 12.61621 15228 ft 353 kts 246°
2026-04-24 11:53 55.48647 12.57788 15823 ft 355 kts 246°
2026-04-24 11:53 55.47858 12.55185 16230 ft 357 kts 246°
2026-04-24 11:53 55.46685 12.51319 16845 ft 359 kts 246°
2026-04-24 11:53 55.45501 12.47423 17462 ft 362 kts 246°
2026-04-24 11:54 55.44310 12.43513 18100 ft 364 kts 246°
2026-04-24 11:54 55.43106 12.39565 18702 ft 367 kts 246°
2026-04-24 11:54 55.41893 12.35594 19272 ft 369 kts 246°
2026-04-24 11:54 55.40689 12.31664 19837 ft 371 kts 246°
2026-04-24 11:55 55.39463 12.27665 20431 ft 372 kts 246°
2026-04-24 11:55 55.38230 12.23648 21041 ft 374 kts 246°
2026-04-24 11:55 55.36992 12.19624 21651 ft 375 kts 246°
2026-04-24 11:55 55.35747 12.15583 22283 ft 377 kts 246°
2026-04-24 11:56 55.34493 12.11520 22919 ft 379 kts 246°
2026-04-24 11:56 55.33233 12.07444 23579 ft 381 kts 246°
2026-04-24 11:56 55.31960 12.03333 24074 ft 384 kts 246°
2026-04-24 11:56 55.30678 11.99202 24544 ft 386 kts 246°
2026-04-24 11:57 55.29392 11.95065 25018 ft 387 kts 246°
2026-04-24 11:57 55.28098 11.90907 25501 ft 389 kts 246°
2026-04-24 11:57 55.26795 11.86729 25986 ft 391 kts 246°
2026-04-24 11:57 55.25488 11.82545 26488 ft 393 kts 246°
2026-04-24 11:58 55.24170 11.78337 27004 ft 394 kts 246°
2026-04-24 11:58 55.22850 11.74126 27521 ft 394 kts 246°
2026-04-24 11:58 55.21527 11.69917 28046 ft 394 kts 246°
2026-04-24 11:58 55.20205 11.65715 28578 ft 394 kts 246°
2026-04-24 11:59 55.18881 11.61516 29120 ft 393 kts 246°
2026-04-24 11:59 55.17560 11.57335 29675 ft 392 kts 246°
2026-04-24 11:59 55.16241 11.53166 30232 ft 390 kts 246°
2026-04-24 11:59 55.14931 11.49033 30715 ft 388 kts 246°
2026-04-24 12:00 55.13624 11.44917 31192 ft 385 kts 246°
2026-04-24 12:00 55.12345 11.40893 31693 ft 382 kts 246°
2026-04-24 12:00 55.11059 11.36857 32202 ft 378 kts 246°
2026-04-24 12:00 55.09783 11.32860 32705 ft 374 kts 246°
2026-04-24 12:01 55.08523 11.28917 33229 ft 370 kts 246°
2026-04-24 12:01 55.07275 11.25021 33749 ft 365 kts 246°
2026-04-24 12:01 55.06042 11.21175 34196 ft 362 kts 246°
2026-04-24 12:01 55.04818 11.17359 34531 ft 360 kts 246°
2026-04-24 12:02 55.03590 11.13536 34776 ft 361 kts 246°
2026-04-24 12:02 55.02360 11.09710 35022 ft 362 kts 246°
2026-04-24 12:02 55.01125 11.05881 35267 ft 362 kts 246°
2026-04-24 12:02 54.99891 11.02060 35510 ft 362 kts 246°
2026-04-24 12:03 54.98654 10.98236 35748 ft 362 kts 246°
2026-04-24 12:03 54.97415 10.94415 36002 ft 362 kts 246°
2026-04-24 12:03 54.96177 10.90603 36255 ft 361 kts 246°
2026-04-24 12:03 54.94940 10.86800 36509 ft 361 kts 246°
2026-04-24 12:04 54.93682 10.83028 36773 ft 360 kts 245°
2026-04-24 12:04 54.92404 10.79285 37028 ft 360 kts 244°
2026-04-24 12:04 54.91112 10.75551 37248 ft 360 kts 244°
2026-04-24 12:04 54.89817 10.71824 37438 ft 361 kts 244°
2026-04-24 12:05 54.88519 10.68097 37624 ft 361 kts 244°
2026-04-24 12:05 54.87218 10.64361 37815 ft 361 kts 244°
2026-04-24 12:05 54.85917 10.60625 38008 ft 361 kts 244°
2026-04-24 12:05 54.84633 10.56936 38106 ft 364 kts 244°
2026-04-24 12:06 54.81984 10.49325 38113 ft 373 kts 244°
2026-04-24 12:06 54.79261 10.41527 38114 ft 383 kts 243°
2026-04-24 12:07 54.76462 10.33547 38114 ft 392 kts 243°
2026-04-24 12:07 54.73590 10.25389 38116 ft 399 kts 243°
2026-04-24 12:08 54.70696 10.17212 38121 ft 398 kts 243°
2026-04-24 12:08 54.67805 10.09063 38128 ft 398 kts 243°
2026-04-24 12:09 54.64903 10.00898 38129 ft 402 kts 243°
2026-04-24 12:09 54.61936 9.92566 38139 ft 412 kts 242°
2026-04-24 12:10 54.58912 9.84117 38143 ft 414 kts 242°
2026-04-24 12:11 54.54363 9.71476 38149 ft 414 kts 242°
2026-04-24 12:11 54.51324 9.63062 38154 ft 414 kts 242°
2026-04-24 12:12 54.48281 9.54661 38158 ft 414 kts 242°
2026-04-24 12:12 54.45230 9.46266 38155 ft 414 kts 242°
2026-04-24 12:13 54.42173 9.37885 38159 ft 414 kts 241°
2026-04-24 12:13 54.39108 9.29511 38157 ft 414 kts 241°
2026-04-24 12:14 54.36189 9.21559 38156 ft 414 kts 241°
2026-04-24 12:14 54.33112 9.13207 38161 ft 414 kts 241°
2026-04-24 12:15 54.30031 9.04870 38162 ft 414 kts 240°
2026-04-24 12:15 54.26940 8.96537 38165 ft 414 kts 240°
2026-04-24 12:16 54.23848 8.88229 38167 ft 414 kts 240°
2026-04-24 12:16 54.20748 8.79924 38174 ft 414 kts 240°
2026-04-24 12:17 54.17658 8.71676 38178 ft 414 kts 240°
2026-04-24 12:17 54.14548 8.63401 38185 ft 414 kts 240°
2026-04-24 12:18 54.11430 8.55134 38187 ft 414 kts 240°
2026-04-24 12:18 54.08309 8.46885 38191 ft 414 kts 240°
2026-04-24 12:19 54.05184 8.38653 38202 ft 414 kts 239°
2026-04-24 12:19 54.02054 8.30433 38203 ft 414 kts 239°
2026-04-24 12:20 53.98919 8.22229 38211 ft 414 kts 239°
2026-04-24 12:20 53.95781 8.14046 38216 ft 413 kts 239°
2026-04-24 12:21 53.92659 8.05927 38221 ft 413 kts 239°
2026-04-24 12:21 53.89514 7.97778 38225 ft 413 kts 239°
2026-04-24 12:22 53.86362 7.89637 38230 ft 412 kts 239°
2026-04-24 12:22 53.83209 7.81517 38243 ft 412 kts 238°
2026-04-24 12:23 53.80051 7.73415 38251 ft 412 kts 238°
2026-04-24 12:23 53.76891 7.65330 38253 ft 411 kts 238°
2026-04-24 12:24 53.73732 7.57276 38256 ft 411 kts 238°
2026-04-24 12:24 53.70565 7.49226 38259 ft 411 kts 238°
2026-04-24 12:25 53.67417 7.41251 38261 ft 410 kts 238°
2026-04-24 12:25 53.64247 7.33244 38263 ft 410 kts 237°
2026-04-24 12:26 53.61073 7.25255 38276 ft 410 kts 237°
2026-04-24 12:26 53.57901 7.17294 38282 ft 409 kts 237°
2026-04-24 12:27 53.54721 7.09340 38284 ft 409 kts 237°
2026-04-24 12:27 53.51543 7.01416 38281 ft 409 kts 237°
2026-04-24 12:28 53.48362 6.93508 38284 ft 408 kts 237°
2026-04-24 12:28 53.45195 6.85660 38281 ft 408 kts 237°
2026-04-24 12:29 53.42004 6.77775 38278 ft 408 kts 236°
2026-04-24 12:29 53.38814 6.69920 38281 ft 408 kts 236°
2026-04-24 12:30 53.35617 6.62071 38289 ft 408 kts 236°
2026-04-24 12:30 53.32412 6.54227 38288 ft 407 kts 236°
2026-04-24 12:31 53.29210 6.46417 38294 ft 407 kts 236°
2026-04-24 12:31 53.26022 6.38662 38293 ft 407 kts 236°
2026-04-24 12:32 53.22809 6.30871 38290 ft 407 kts 236°
2026-04-24 12:32 53.19591 6.23091 38293 ft 407 kts 236°
2026-04-24 12:33 53.16370 6.15329 38302 ft 407 kts 236°
2026-04-24 12:33 53.13141 6.07570 38309 ft 407 kts 236°
2026-04-24 12:34 53.09905 5.99820 38308 ft 407 kts 236°
2026-04-24 12:34 53.06663 5.92078 38309 ft 407 kts 236°
2026-04-24 12:35 53.03418 5.84354 38308 ft 408 kts 236°
2026-04-24 12:35 53.00165 5.76633 38309 ft 408 kts 236°
2026-04-24 12:36 52.96933 5.68984 38308 ft 408 kts 236°
2026-04-24 12:36 52.93664 5.61273 38310 ft 408 kts 236°
2026-04-24 12:37 52.90387 5.53566 38308 ft 408 kts 236°
2026-04-24 12:37 52.87108 5.45876 38308 ft 409 kts 236°
2026-04-24 12:38 52.83822 5.38194 38310 ft 409 kts 236°
2026-04-24 12:38 52.80548 5.30565 38315 ft 409 kts 235°
2026-04-24 12:39 52.73950 5.15255 38313 ft 410 kts 235°
2026-04-24 12:40 52.70637 5.07603 38314 ft 410 kts 235°
2026-04-24 12:40 52.67854 5.01193 38312 ft 410 kts 235°
2026-04-24 12:41 52.64552 4.93606 38312 ft 410 kts 235°
2026-04-24 12:41 52.61220 4.85976 38312 ft 410 kts 235°
2026-04-24 12:42 52.57880 4.78350 38313 ft 411 kts 235°
2026-04-24 12:42 52.54531 4.70727 38314 ft 411 kts 235°
2026-04-24 12:43 52.51182 4.63126 38316 ft 411 kts 235°
2026-04-24 12:43 52.47826 4.55531 38315 ft 411 kts 235°
2026-04-24 12:44 52.44464 4.47945 38319 ft 411 kts 235°
2026-04-24 12:44 52.41096 4.40369 38320 ft 411 kts 235°
2026-04-24 12:45 52.37747 4.32857 38319 ft 411 kts 235°
2026-04-24 12:45 52.34369 4.25302 38321 ft 411 kts 235°
2026-04-24 12:46 52.30984 4.17754 38325 ft 411 kts 235°
2026-04-24 12:46 52.27590 4.10210 38324 ft 412 kts 235°
2026-04-24 12:47 52.24192 4.02677 38325 ft 412 kts 235°
2026-04-24 12:47 52.20786 3.95149 38328 ft 412 kts 235°
2026-04-24 12:48 52.17398 3.87683 38330 ft 412 kts 234°
2026-04-24 12:48 52.13986 3.80186 38327 ft 412 kts 234°
2026-04-24 12:49 52.10567 3.72695 38324 ft 412 kts 234°
2026-04-24 12:49 52.07141 3.65212 38330 ft 413 kts 234°
2026-04-24 12:50 52.03852 3.58048 38334 ft 413 kts 234°
2026-04-24 12:50 52.00412 3.50575 38337 ft 413 kts 234°
2026-04-24 12:51 51.96966 3.43113 38332 ft 413 kts 234°
2026-04-24 12:51 51.93516 3.35662 38332 ft 414 kts 234°
2026-04-24 12:52 51.90053 3.28206 38333 ft 414 kts 234°
2026-04-24 12:52 51.86743 3.20589 38077 ft 410 kts 241°
2026-04-24 12:52 51.85520 3.16452 37549 ft 406 kts 249°
2026-04-24 12:53 51.84715 3.12093 37017 ft 404 kts 257°
2026-04-24 12:53 51.84259 3.07621 36503 ft 401 kts 261°
2026-04-24 12:53 51.83920 3.03169 36032 ft 398 kts 262°
2026-04-24 12:53 51.83637 2.98736 35584 ft 394 kts 263°
2026-04-24 12:54 51.83379 2.94406 35148 ft 390 kts 263°
2026-04-24 12:54 51.83120 2.90056 34716 ft 386 kts 262°
2026-04-24 12:54 51.82856 2.85754 34284 ft 382 kts 262°
2026-04-24 12:54 51.82586 2.81509 33832 ft 378 kts 262°
2026-04-24 12:55 51.82310 2.77307 33385 ft 373 kts 262°
2026-04-24 12:55 51.82032 2.73145 32959 ft 369 kts 262°
2026-04-24 12:55 51.81754 2.69053 32545 ft 364 kts 262°
2026-04-24 12:55 51.81477 2.65006 32146 ft 360 kts 262°
2026-04-24 12:56 51.81202 2.61020 31803 ft 354 kts 262°
2026-04-24 12:56 51.80929 2.57083 31491 ft 348 kts 262°
2026-04-24 12:56 51.80663 2.53276 31228 ft 345 kts 262°
2026-04-24 12:56 51.80392 2.49416 30950 ft 347 kts 262°
2026-04-24 12:57 51.80118 2.45531 30683 ft 348 kts 262°
2026-04-24 12:57 51.79844 2.41651 30424 ft 347 kts 262°
2026-04-24 12:57 51.79570 2.37790 30119 ft 346 kts 262°
2026-04-24 12:57 51.79297 2.33943 29805 ft 344 kts 262°
2026-04-24 12:58 51.79022 2.30098 29358 ft 344 kts 262°
2026-04-24 12:58 51.78747 2.26273 28896 ft 343 kts 262°
2026-04-24 12:58 51.78477 2.22402 28465 ft 349 kts 262°
2026-04-24 12:58 51.78237 2.18491 28119 ft 352 kts 263°
2026-04-24 12:59 51.78007 2.14560 27771 ft 352 kts 263°
2026-04-24 12:59 51.77777 2.10629 27407 ft 351 kts 263°
2026-04-24 12:59 51.77546 2.06710 27047 ft 350 kts 263°
2026-04-24 12:59 51.77315 2.02810 26693 ft 349 kts 263°
2026-04-24 13:00 51.77083 1.98914 26343 ft 348 kts 263°
2026-04-24 13:00 51.76850 1.95035 26000 ft 347 kts 263°
2026-04-24 13:00 51.76619 1.91214 25660 ft 346 kts 263°
2026-04-24 13:00 51.76384 1.87351 25323 ft 345 kts 263°
2026-04-24 13:01 51.76149 1.83504 24984 ft 344 kts 262°
2026-04-24 13:01 51.75913 1.79661 24656 ft 343 kts 262°
2026-04-24 13:01 51.75677 1.75831 24332 ft 343 kts 262°
2026-04-24 13:01 51.75439 1.72004 24011 ft 342 kts 262°
2026-04-24 13:02 51.75201 1.68192 23638 ft 341 kts 262°
2026-04-24 13:02 51.74962 1.64383 23258 ft 340 kts 262°
2026-04-24 13:02 51.74723 1.60593 22879 ft 339 kts 262°
2026-04-24 13:02 51.74484 1.56815 22501 ft 338 kts 262°
2026-04-24 13:03 51.74243 1.53051 22130 ft 336 kts 262°
2026-04-24 13:03 51.74004 1.49313 21767 ft 335 kts 262°
2026-04-24 13:03 51.73764 1.45583 21406 ft 333 kts 262°
2026-04-24 13:03 51.73523 1.41868 21048 ft 332 kts 262°
2026-04-24 13:04 51.73283 1.38174 20696 ft 331 kts 262°
2026-04-24 13:04 51.73042 1.34491 20345 ft 330 kts 262°
2026-04-24 13:04 51.72800 1.30814 20002 ft 329 kts 262°
2026-04-24 13:04 51.72559 1.27153 19664 ft 328 kts 262°
2026-04-24 13:05 51.72317 1.23507 19326 ft 326 kts 262°
2026-04-24 13:05 51.72078 1.19917 18993 ft 325 kts 262°
2026-04-24 13:05 51.71835 1.16297 18668 ft 324 kts 262°
2026-04-24 13:05 51.71589 1.12633 18289 ft 323 kts 263°
2026-04-24 13:06 51.71346 1.09043 17918 ft 322 kts 262°
2026-04-24 13:06 51.71104 1.05468 17544 ft 320 kts 262°
2026-04-24 13:06 51.70864 1.01958 17187 ft 318 kts 262°
2026-04-24 13:06 51.70622 0.98421 16826 ft 317 kts 262°
2026-04-24 13:07 51.70380 0.94895 16472 ft 316 kts 262°
2026-04-24 13:07 51.70137 0.91381 16120 ft 314 kts 262°
2026-04-24 13:07 51.69893 0.87877 15761 ft 313 kts 262°
2026-04-24 13:07 51.69649 0.84390 15349 ft 313 kts 263°
2026-04-24 13:08 51.69405 0.80903 14938 ft 311 kts 263°
2026-04-24 13:08 51.69162 0.77445 14536 ft 310 kts 263°
2026-04-24 13:08 51.68919 0.73997 14126 ft 309 kts 263°
2026-04-24 13:09 51.68432 0.67141 13225 ft 307 kts 263°
2026-04-24 13:09 51.68191 0.63776 12798 ft 306 kts 263°
2026-04-24 13:09 51.67944 0.60335 12361 ft 305 kts 263°
2026-04-24 13:09 51.67700 0.56952 11931 ft 303 kts 263°
2026-04-24 13:10 51.67460 0.53625 11516 ft 302 kts 263°
2026-04-24 13:10 51.67212 0.50221 11093 ft 301 kts 263°
2026-04-24 13:10 51.66972 0.46919 10686 ft 301 kts 263°
2026-04-24 13:10 51.66723 0.43536 10273 ft 300 kts 262°
2026-04-24 13:11 51.66480 0.40256 9836 ft 298 kts 263°
2026-04-24 13:11 51.66235 0.36941 9476 ft 296 kts 263°
2026-04-24 13:11 51.65992 0.33656 9211 ft 295 kts 263°
2026-04-24 13:11 51.65748 0.30373 8942 ft 295 kts 262°
2026-04-24 13:12 51.65502 0.27093 8687 ft 294 kts 262°
2026-04-24 13:12 51.65257 0.23831 8439 ft 293 kts 262°
2026-04-24 13:12 51.65032 0.20582 8326 ft 291 kts 264°
2026-04-24 13:12 51.64889 0.17325 8316 ft 289 kts 265°
2026-04-24 13:13 51.64768 0.14191 8314 ft 272 kts 266°
2026-04-24 13:13 51.64653 0.11228 8316 ft 260 kts 266°
2026-04-24 13:13 51.64542 0.08336 8323 ft 258 kts 266°
2026-04-24 13:13 51.64433 0.05445 8318 ft 259 kts 266°
2026-04-24 13:14 51.64325 0.02552 8316 ft 259 kts 266°
2026-04-24 13:14 51.64217 -0.00342 8319 ft 259 kts 266°
2026-04-24 13:14 51.64109 -0.03248 8321 ft 260 kts 266°
2026-04-24 13:14 51.64002 -0.06145 8361 ft 259 kts 266°
2026-04-24 13:15 51.63896 -0.09045 8366 ft 259 kts 266°
2026-04-24 13:15 51.63790 -0.11942 8366 ft 259 kts 266°
2026-04-24 13:15 51.63683 -0.14837 8368 ft 259 kts 266°
2026-04-24 13:15 51.63577 -0.17736 8372 ft 260 kts 266°
2026-04-24 13:16 51.63473 -0.20639 8373 ft 260 kts 266°
2026-04-24 13:16 51.63370 -0.23542 8373 ft 260 kts 266°
2026-04-24 13:16 51.63267 -0.26447 8370 ft 260 kts 266°
2026-04-24 13:16 51.63167 -0.29318 8377 ft 260 kts 265°
2026-04-24 13:17 51.63071 -0.32218 8373 ft 260 kts 266°
2026-04-24 13:17 51.62974 -0.35111 8317 ft 260 kts 266°
2026-04-24 13:17 51.62877 -0.38025 8324 ft 260 kts 265°
2026-04-24 13:17 51.62780 -0.40924 8320 ft 260 kts 266°
2026-04-24 13:18 51.62684 -0.43827 8320 ft 260 kts 266°
2026-04-24 13:18 51.62589 -0.46728 8322 ft 260 kts 265°
2026-04-24 13:18 51.62494 -0.49640 8318 ft 260 kts 266°
2026-04-24 13:18 51.62399 -0.52544 8323 ft 260 kts 266°
2026-04-24 13:19 51.62304 -0.55461 8113 ft 261 kts 265°
2026-04-24 13:19 51.62209 -0.58377 7818 ft 261 kts 266°
2026-04-24 13:19 51.62111 -0.61289 7529 ft 261 kts 266°
2026-04-24 13:19 51.62015 -0.64193 7226 ft 259 kts 266°
2026-04-24 13:20 51.61920 -0.67087 6942 ft 259 kts 266°
2026-04-24 13:20 51.61823 -0.69983 6652 ft 259 kts 266°
2026-04-24 13:20 51.61724 -0.72869 6334 ft 258 kts 266°
2026-04-24 13:20 51.61593 -0.75746 6009 ft 257 kts 258°
2026-04-24 13:21 51.60904 -0.78336 5713 ft 252 kts 229°
2026-04-24 13:21 51.59542 -0.80005 5397 ft 246 kts 198°
2026-04-24 13:21 51.57890 -0.80580 5114 ft 242 kts 184°
2026-04-24 13:21 51.56216 -0.80804 4810 ft 241 kts 181°
2026-04-24 13:22 51.54567 -0.80977 4496 ft 239 kts 180°
2026-04-24 13:22 51.52922 -0.81143 4247 ft 236 kts 180°
2026-04-24 13:22 51.51298 -0.81312 4010 ft 231 kts 180°
2026-04-24 13:22 51.49747 -0.81488 4023 ft 214 kts 180°
2026-04-24 13:23 51.48350 -0.81219 3979 ft 194 kts 151°
2026-04-24 13:23 51.47428 -0.79856 3893 ft 176 kts 120°
2026-04-24 13:23 51.46876 -0.78091 3628 ft 178 kts 112°
2026-04-24 13:23 51.46475 -0.76215 3390 ft 179 kts 105°
2026-04-24 13:24 51.46139 -0.74261 3102 ft 182 kts 99°
2026-04-24 13:24 51.46051 -0.72220 2840 ft 184 kts 85°
2026-04-24 13:24 51.46210 -0.70204 2596 ft 179 kts 81°
2026-04-24 13:24 51.46432 -0.68290 2551 ft 170 kts 78°
2026-04-24 13:25 51.46669 -0.66513 2488 ft 157 kts 79°
2026-04-24 13:25 51.46825 -0.65382 2536 ft 157 kts 76°
2026-04-24 13:25 51.47064 -0.63696 2367 ft 154 kts 78°
2026-04-24 13:25 51.47304 -0.62018 2232 ft 152 kts 78°
2026-04-24 13:26 51.47544 -0.60360 2016 ft 151 kts 77°
2026-04-24 13:26 51.47667 -0.58704 1760 ft 151 kts 88°
2026-04-24 13:26 51.47692 -0.57036 1485 ft 151 kts 88°
2026-04-24 13:26 51.47715 -0.55407 1158 ft 141 kts 89°
2026-04-24 13:27 51.47729 -0.53888 839 ft 132 kts 90°
2026-04-24 13:27 51.47731 -0.52431 621 ft 128 kts 88°
2026-04-24 13:27 51.47739 -0.51053 434 ft 120 kts 89°
2026-04-24 13:27 51.47744 -0.49730 278 ft 118 kts 88°
2026-04-24 13:28 51.47750 -0.48423 127 ft 116 kts 87°
2026-04-24 13:28 51.47758 -0.47214 92 ft 97 kts 89°
2026-04-24 13:28 51.47759 -0.46240 93 ft 79 kts 90°
2026-04-24 13:28 51.47760 -0.45420 89 ft 65 kts 90°
2026-04-24 13:29 51.47752 -0.44933 93 ft 21 kts 115°
2026-04-24 13:29 51.47672 -0.44818 92 ft 13 kts 145°
2026-04-24 13:29 51.47633 -0.44792 92 ft 0 kts 171°
2026-04-24 13:29 51.47629 -0.44791 91 ft 1 kts 171°
2026-04-24 13:30 51.47616 -0.44785 90 ft 2 kts 152°
2026-04-24 13:30 51.47602 -0.44754 92 ft 5 kts 111°
2026-04-24 13:30 51.47584 -0.44683 92 ft 8 kts 134°
2026-04-24 13:30 51.47533 -0.44653 91 ft 8 kts 159°
2026-04-24 13:31 51.47493 -0.44588 92 ft 9 kts 137°
2026-04-24 13:31 51.47436 -0.44561 90 ft 9 kts 176°
2026-04-24 13:31 51.47371 -0.44562 91 ft 9 kts 182°
2026-04-24 13:31 51.47304 -0.44563 93 ft 9 kts 180°
2026-04-24 13:32 51.47266 -0.44621 94 ft 8 kts 257°
2026-04-24 13:32 51.47264 -0.44688 90 ft 6 kts 268°
2026-04-24 13:32 51.47264 -0.44729 91 ft 2 kts 270°
2026-04-24 13:32 51.47264 -0.44730 91 ft 0 kts 270°